Date String (YYYY-MM-DD hh:mm:ss) UTC,Instrument flags,Ambient pressure (hPa),Sample flow (lpm),Bypass flow (lpm),Sample temperature (°C),Ambient temperature (°C),ASC tube jacket temperature (°C),LED temperature (°C),Box temperature (°C),Sample RH (%),Span deviation,Mass concentration (μg/m³),Mass concentration (μg/m³),Mass concentration (μg/m³)
DateTimeUTC,F1_M11,P_M11,Q1_M11,Q2_M11,T1_M11,T2_M11,T3_M11,T4_M11,T5_M11,U1_M11,ZSPAN_M11,X0_M11,X2_M11,X1_M11
2022-04-28 21:00:00,,0817.8,5.02,0.00,29.6,28.4,00.0,38.4,31.4,10.4,0001.8,0039.90,0010.97,0006.55
2022-04-28 21:01:00,,0817.8,4.99,0.00,29.6,28.5,00.0,38.4,31.5,10.4,0002.3,0039.43,0010.84,0006.50
2022-04-28 21:02:00,,0817.8,5.00,0.00,29.6,28.7,00.0,38.5,31.5,10.3,0002.7,0039.34,0010.70,0006.43
2022-04-28 21:03:00,,0817.7,5.01,0.00,29.7,27.9,00.0,38.5,31.3,10.0,0002.6,0041.01,0010.62,0006.37
2022-04-28 21:04:00,,0817.7,4.99,0.00,29.5,25.6,00.0,38.4,30.8,10.1,0002.8,0039.51,0010.52,0006.32
2022-04-28 21:05:00,,0817.7,5.00,0.00,29.4,25.1,00.0,38.4,30.7,10.2,0003.5,0038.55,0010.39,0006.28
2022-04-28 21:06:00,,0817.7,4.99,0.00,29.3,25.6,00.0,38.4,30.8,10.0,0003.4,0039.87,0010.37,0006.24
2022-04-28 21:07:00,,0817.8,5.00,0.00,29.3,26.2,00.0,38.3,30.9,10.1,0004.0,0039.06,0010.34,0006.20
2022-04-28 21:08:00,,0817.7,5.01,0.00,29.3,26.6,00.0,38.3,31.0,09.7,0003.8,0038.56,0010.33,0006.19
2022-04-28 21:09:00,,0817.7,4.99,0.00,29.3,27.0,00.0,38.3,31.0,09.1,0003.9,0038.20,0010.33,0006.15
2022-04-28 21:10:00,,0817.7,5.00,0.00,29.3,27.3,00.0,38.3,31.1,08.3,0003.6,0035.83,0010.32,0006.12
2022-04-28 21:11:00,,0817.7,5.01,0.00,29.3,27.6,00.0,38.3,31.1,08.3,0003.0,0033.30,0010.04,0006.09
2022-04-28 21:12:00,,0817.7,4.99,0.00,29.3,27.8,00.0,38.3,31.2,08.3,0002.3,0033.62,0009.95,0006.07
2022-04-28 21:13:00,,0817.7,5.02,0.00,29.4,28.0,00.0,38.3,31.2,08.6,0002.0,0033.74,0009.88,0006.07
2022-04-28 21:14:00,,0817.7,5.00,0.00,29.4,28.1,00.0,38.3,31.2,08.8,0001.9,0031.92,0009.80,0006.06
2022-04-28 21:15:00,,0817.7,4.99,0.00,29.4,28.3,00.0,38.3,31.3,09.3,0002.0,0031.10,0009.70,0006.06
2022-04-28 21:16:00,,0817.6,5.00,0.00,29.4,28.4,00.0,38.3,31.3,09.2,0001.0,0029.85,0009.67,0006.09
2022-04-28 21:17:00,,0817.6,5.00,0.00,29.5,28.5,00.0,38.3,31.4,09.2,0000.7,0028.55,0009.61,0006.12
2022-04-28 21:18:00,,0817.6,4.99,0.00,29.5,28.6,00.0,38.4,31.4,09.2,-000.1,0027.47,0009.57,0006.14
2022-04-28 21:19:00,,0817.6,5.00,0.00,29.6,28.6,00.0,38.4,31.4,09.2,-000.4,0027.03,0009.47,0006.15
2022-04-28 21:20:00,,0817.5,5.01,0.00,29.5,26.8,00.0,38.4,31.0,09.5,-000.4,0027.04,0009.42,0006.17
2022-04-28 21:21:00,,0817.5,4.99,0.00,29.4,25.3,00.0,38.3,30.7,09.7,-000.1,0027.73,0009.40,0006.20
2022-04-28 21:22:00,,0817.5,5.02,0.00,29.3,25.5,00.0,38.3,30.7,09.7,-000.0,0027.93,0009.49,0006.25
2022-04-28 21:23:00,,0817.4,5.00,0.00,29.2,26.0,00.0,38.2,30.8,09.7,0000.1,0027.32,0009.69,0006.30
2022-04-28 21:24:00,,0817.5,4.98,0.00,29.2,26.5,00.0,38.2,30.9,09.8,0000.5,0027.32,0009.91,0006.35
2022-04-28 21:25:00,,0817.5,5.01,0.00,29.2,26.9,00.0,38.2,30.9,10.0,0000.7,0027.45,0009.92,0006.38
2022-04-28 21:26:00,,0817.5,4.99,0.00,29.2,27.2,00.0,38.2,31.0,10.4,0001.1,0027.57,0010.05,0006.41
2022-04-28 21:27:00,,0817.5,4.99,0.00,29.3,27.5,00.0,38.2,31.1,10.3,0001.7,0028.00,0010.14,0006.41
2022-04-28 21:28:00,,0817.5,5.02,0.00,29.3,27.7,00.0,38.2,31.1,10.3,0001.9,0028.63,0010.18,0006.42
2022-04-28 21:29:00,,0817.5,4.98,0.00,29.3,27.9,00.0,38.2,31.2,10.2,0002.4,0029.10,0010.26,0006.45
2022-04-28 21:30:00,,0817.5,5.00,0.00,29.4,28.1,00.0,38.2,31.2,10.1,0002.0,0029.17,0010.31,0006.47
2022-04-28 21:31:00,,0817.4,5.01,0.00,29.4,28.2,00.0,38.3,31.3,10.2,0001.2,0029.20,0010.35,0006.46
2022-04-28 21:32:00,,0817.4,4.98,0.00,29.4,28.3,00.0,38.3,31.3,09.9,0000.9,0028.30,0010.39,0006.48
2022-04-28 21:33:00,,0817.4,5.00,0.00,29.5,28.5,00.0,38.3,31.4,09.7,0000.8,0028.19,0010.43,0006.47
2022-04-28 21:34:00,,0817.4,5.01,0.00,29.5,28.6,00.0,38.3,31.4,09.2,0001.2,0027.75,0010.36,0006.45
2022-04-28 21:35:00,,0817.3,4.98,0.00,29.5,28.5,00.0,38.3,31.4,08.9,0000.7,0026.98,0010.06,0006.38
2022-04-28 21:36:00,,0817.2,5.01,0.00,29.5,26.8,00.0,38.3,31.0,09.0,0000.4,0027.64,0009.99,0006.31
2022-04-28 21:37:00,,0817.3,5.01,0.00,29.3,25.2,00.0,38.3,30.6,09.6,0000.4,0035.06,0010.13,0006.26
2022-04-28 21:38:00,,0817.2,4.99,0.00,29.3,25.5,00.0,38.2,30.7,09.8,0000.1,0043.70,0010.38,0006.26
2022-04-28 21:39:00,,0817.2,5.00,0.00,29.2,26.0,00.0,38.2,30.7,09.6,0001.2,0043.03,0010.36,0006.22
2022-04-28 21:40:00,,0817.1,5.01,0.00,29.2,26.4,00.0,38.2,30.9,09.7,0000.8,0043.10,0010.29,0006.17
2022-04-28 21:41:00,,0817.2,4.99,0.00,29.2,26.8,00.0,38.2,31.0,10.1,0001.6,0043.41,0010.28,0006.12
2022-04-28 21:42:00,,0817.1,4.99,0.00,29.2,27.2,00.0,38.2,31.0,09.8,0003.6,0042.87,0010.24,0006.10
2022-04-28 21:43:00,,0817.1,5.02,0.00,29.3,27.5,00.0,38.2,31.1,09.8,0004.8,0042.23,0010.18,0006.07
2022-04-28 21:44:00,,0817.1,4.99,0.00,29.3,27.7,00.0,38.2,31.1,09.6,0005.2,0041.72,0010.16,0006.05
2022-04-28 21:45:00,,0817.1,5.00,0.00,29.3,27.9,00.0,38.2,31.2,09.7,0005.8,0041.82,0010.19,0006.03
2022-04-28 21:46:00,,0817.0,5.01,0.00,29.3,28.0,00.0,38.2,31.2,09.7,0005.9,0042.08,0010.32,0006.04
2022-04-28 21:47:00,,0817.0,4.98,0.00,29.3,28.2,00.0,38.2,31.2,09.7,0005.8,0041.33,0010.47,0006.09
2022-04-28 21:48:00,,0817.0,5.02,0.00,29.4,28.3,00.0,38.2,31.2,09.4,0004.6,0039.70,0010.42,0006.11
2022-04-28 21:49:00,,0817.0,4.99,0.00,29.4,28.4,00.0,38.2,31.3,09.4,0003.6,0027.96,0009.99,0006.08
2022-04-28 21:50:00,,0817.0,4.99,0.00,29.4,28.5,00.0,38.3,31.3,09.5,0003.0,0026.40,0009.86,0006.07
2022-04-28 21:51:00,,0817.0,5.02,0.00,29.5,28.6,00.0,38.3,31.3,09.5,0002.7,0027.49,0009.85,0006.07
2022-04-28 21:52:00,,0816.9,5.00,0.00,29.5,27.9,00.0,38.3,31.2,09.4,0003.0,0026.83,0009.76,0006.07
2022-04-28 21:53:00,,0817.2,5.00,0.00,29.4,26.2,00.0,38.3,30.9,09.3,0003.0,0027.46,0009.74,0006.05
2022-04-28 21:54:00,,0817.2,5.00,0.00,29.3,26.2,00.0,38.3,30.9,09.4,0002.2,0027.30,0009.69,0006.03
2022-04-28 21:55:00,,0817.3,4.99,0.00,29.3,26.6,00.0,38.2,30.9,09.1,0001.3,0026.93,0009.72,0006.03
2022-04-28 21:56:00,,0817.3,4.99,0.00,29.3,27.0,00.0,38.2,31.0,09.2,0001.2,0027.34,0009.64,0006.02
2022-04-28 21:57:00,,0817.1,5.01,0.00,29.3,27.3,00.0,38.2,31.1,09.3,0001.3,0027.31,0009.61,0006.02
2022-04-28 21:58:00,,0816.8,5.00,0.00,29.3,27.6,00.0,38.2,31.1,09.3,0001.9,0027.17,0009.58,0006.03
2022-04-28 21:59:00,,0816.8,4.99,0.00,29.4,27.8,00.0,38.2,31.2,09.3,0002.3,0026.86,0009.61,0006.04
